Regional Weather Roundup
Issued by NWS Midland/Odessa, TX

Home | Current Version | Previous Version | Text Only | Print | Product List | Glossary On
Versions: 1 2 3 4 5 6 7 8 9 10 11 12 13 14 15 16 17 18 19 20 21 22 23 24 25 26 27 28 29 30 31 32 33 34 35 36 37 38 39 40 41 42 43 44 45 46 47 48 49 50
000
ASUS44 KMAF 281210
RWRMAF
MIDLAND AREA WEATHER ROUNDUP
NATIONAL WEATHER SERVICE MIDLAND TX
700 AM CDT FRI AUG 28 2015

...IN SOUTHWEST TEXAS AND SOUTHEAST NEW MEXICO...

CITY           SKY/WX    TMP DP  RH WIND       PRES   REMARKS
ALPINE         CLEAR     69  52  55 S7        30.19S
ANDREWS        FAIR      72  56  57 S8        30.05S
ARTESIA        CLEAR     68  57  68 NW6       30.05S
BIG SPRING     PTCLDY    70  57  63 S8        30.05S
CARLSBAD       PTCLDY    69  52  54 N6        30.02R
DRYDEN           N/A     71  55  56 VRB6      30.01R
FORT STOCKTON  CLEAR     72  55  55 S9        30.03S
GUAD PASS      CLEAR     71  49  45 W8        30.19S
HOBBS          PTCLDY    68  54  60 S7        30.07S
MARFA          PTCLDY    57  52  82 NE6       30.18S
MIDLAND AIRPK  CLEAR     77  57  49 S14G20    30.04S
MIDLAND INTL   CLEAR     74  58  57 S10       30.03S
ODESSA         CLEAR     74  57  55 S10       30.05R
PECOS          PTCLDY    71  55  58 NE3       29.98S
PRESIDIO       NOT AVBL
SEMINOLE       CLOUDY    71  56  57 S7        30.06S
SNYDER         CLEAR     71  58  65 S5        30.03R
WINK           PTCLDY    73  56  54 SE12      29.99F
$$
...OTHER STATIONS IN TEXAS...

CITY           SKY/WX    TMP DP  RH WIND       PRES   REMARKS
ABILENE        CLEAR     73  60  63 S9        30.00S
AMARILLO       MOCLDY    70  59  68 E6        30.05R
AUSTIN         PTCLDY    64  63  96 CALM      30.00R
BROWNSVILLE    CLEAR     72  69  90 CALM      29.95F
CORPUS CHRISTI PTCLDY    68  63  84 W6        29.97R
DALLAS FTW     PTCLDY    72  62  71 SE6       29.99R
DEL RIO        PTCLDY    72  58  61 E9        29.98S
EL PASO        MOCLDY    74  57  55 N3        30.06R
HOUSTON INT    PTCLDY    71  67  87 CALM      29.99R
LUBBOCK        MOCLDY    74  55  51 SW12      30.03S
SAN ANGELO     CLEAR     73  57  57 SW7       30.02R
SAN ANTONIO    CLEAR     72  63  73 CALM      30.02R
WACO           CLEAR     69  61  75 E3        29.99S
WICHITA FALLS  NOT AVBL
$$
...OTHER LOCATIONS IN NEW MEXICO...

CITY           SKY/WX    TMP DP  RH WIND       PRES   REMARKS
ALAMAGORDO     PTCLDY    66  54  63 E5        30.09R
ALBUQUERQUE    PTCLDY    65  56  72 CALM      30.20S
CANNON AFB     PTCLDY    69  54  59 W9        30.07S
CLOVIS         PTCLDY    68  54  60 W10       30.09R
HOLLOMAN AFB   PTCLDY    68  55  64 VRB2      30.06S
ROSWELL        PTCLDY    68  58  70 W5        30.05R
RUIDOSO        PTCLDY    63  50  63 MISG      30.30S
SANTA FE       CLEAR     59  49  69 N10       30.25S
TRUTH OR CONSE CLEAR     69  52  54 NW7       30.14R
TUCUMCARI      CLEAR     65  58  78 N10       30.07R
$$




USA.gov is the U.S. government's official web portal to all federal, state and local government web resources and services.